Torna al catalogo

STARLINK-35878

AttivoComunicazioniVLEO
NORAD 67178·PAYLOAD·🇺🇸 United States

Lanciato Dec 17, 2025 da Cape Canaveral Space Force Station

Loading…

Prossimi Passaggi (prossime 24 ore)

TLE

AggiornatoSource: CelesTrak SupGP

Epoca: Sep 14, 2026, 20:57 UTC

1 67178C 25303R   26257.87340278 -.00027166  00000+0 -98384-3 0  2578
2 67178  43.0035 322.2727 0001834 276.0315 266.6013 15.27595421    17

Traccia STARLINK-35878 in tempo reale con AllMySat

Download on the App Store